This is the latest recevied weather packets stored in our database for station/object W9KHP-1. If no packets are shown the sender has not sent any weather packets the latest 10 day(s).
| Time | Temp. | Humidity | Pressure | Rain* | Wind** | Luminosity | Snow |
|---|---|---|---|---|---|---|---|
| 1778081691 | 13.33° C | 80% | 1017.5 hPa | 0 mm | - | 331 W/m² | - |
| 1778081388 | 12.78° C | 82% | 1017.6 hPa | 0 mm | - | 288 W/m² | - |
| 1778081085 | 12.78° C | 82% | 1017.5 hPa | 0 mm | - | 223 W/m² | - |
| 1778080783 | 12.78° C | 82% | 1017.3 hPa | 0 mm | - | 313 W/m² | - |
| 1778080480 | 12.22° C | 83% | 1017.5 hPa | 0 mm | - | 274 W/m² | - |
| 1778080178 | 12.78° C | 81% | 1017.2 hPa | 0 mm | - | 272 W/m² | - |
| 1778079873 | 12.78° C | 87% | 1017.2 hPa | 0 mm | - | 278 W/m² | - |
| 1778079571 | 12.78° C | 85% | 1017.1 hPa | 0 mm | - | 291 W/m² | - |
| 1778079267 | 12.78° C | 86% | 1017 hPa | 0 mm | - | 235 W/m² | - |
| 1778078965 | 12.22° C | 84% | 1016.8 hPa | 0 mm | - | 284 W/m² | - |
| 1778078661 | 12.22° C | 85% | 1016.7 hPa | 0 mm | - | 218 W/m² | - |
| 1778078360 | 11.67° C | 88% | 1016.6 hPa | 0 mm | - | 333 W/m² | - |
| 1778078056 | 11.11° C | 87% | 1016.7 hPa | 0 mm | - | 261 W/m² | - |
| 1778077754 | 11.11° C | 89% | 1016.6 hPa | 0 mm | - | 167 W/m² | - |
| 1778077453 | 11.11° C | 91% | 1016.3 hPa | 0 mm | - | 131 W/m² | - |
| 1778077150 | 10.56° C | 93% | 1016.3 hPa | 0 mm | - | 144 W/m² | - |
| 1778076848 | 10.56° C | 93% | 1016.4 hPa | 0 mm | - | 158 W/m² | - |
| 1778076546 | 10.56° C | 96% | 1016.1 hPa | 0 mm | - | 241 W/m² | - |
| 1778076242 | 10° C | 99% | 1016.2 hPa | 0 mm | - | 161 W/m² | - |
| 1778075940 | 10° C | 99% | 1016.1 hPa | 0 mm | - | 146 W/m² | - |
| 1778075636 | 10° C | 99% | 1016.2 hPa | 0 mm | - | 100 W/m² | - |
| 1778075333 | 10° C | 99% | 1016.2 hPa | 0 mm | - | 140 W/m² | - |
| 1778075029 | 8.89° C | 99% | 1016.2 hPa | 0 mm | - | 156 W/m² | - |
| 1778074726 | 9.44° C | 99% | 1016.2 hPa | 0 mm | - | 130 W/m² | - |
| 1778074423 | 9.44° C | 99% | 1016.2 hPa | 0 mm | - | 145 W/m² | - |
* Rain latest hour (hover to see other rain measurements)
** Current wind speed in m/s (hover to see current wind gust speed)